Location: Hylvaty SDH
(49.9612°N, 16.4057°E)
Time: 02:48:15
(UTC+01:00)

Tiros 1 despin weight - Pass Details

Date: 24 January 2021
Orbit: 593 x 642 km, 48.2° (Epoch: 24 February)

Event Time Altitude Azimuth Distance (km) Brightness Sun altitude
Rises 19:38:09 0° 280° (W) 2,850 ? -29.1°
Reaches altitude 10° 19:40:44 10° 268° (W) 1,938 ? -29.5°
Enters shadow 19:43:44 25° 227° (SW) 1,211 ? -30.0°
